Time,TemperatureF,DewpointF,PressureIn,WindDirection,WindDirectionDegrees,WindSpeedMPH,WindSpeedGustMPH,Humidity,HourlyPrecipIn,Conditions,Clouds,dailyrainin,SolarRadiationWatts/m^2,SoftwareType,DateUTC
2013-01-20 00:12:00,10.0,5.0,-100.00,NNE,22,0.0,0.0,79,0.00,,,0.00,0.000000,,2013-01-20 07:12:00,
2013-01-20 00:42:00,10.0,5.0,-100.00,NNE,22,0.0,0.0,79,0.00,,,0.00,0.000000,,2013-01-20 07:42:00,
2013-01-20 01:22:00,8.0,2.0,-100.00,ENE,76,3.0,8.0,77,0.00,,,0.00,0.000000,,2013-01-20 08:22:00,
2013-01-20 01:32:00,8.0,2.0,-100.00,ENE,76,3.0,8.0,77,0.00,,,0.00,0.000000,,2013-01-20 08:32:00,
2013-01-20 02:52:00,8.0,1.0,-100.00,ENE,73,7.0,10.0,71,-99.99,,,0.00,0.000000,,2013-01-20 09:52:00,
2013-01-20 03:22:00,8.0,1.0,-100.00,ENE,73,7.0,10.0,71,-99.99,,,0.00,0.000000,,2013-01-20 10:22:00,
2013-01-20 03:42:00,8.0,1.0,-100.00,ENE,73,7.0,10.0,71,-99.99,,,0.00,0.000000,,2013-01-20 10:42:00,
2013-01-20 03:52:00,7.0,0.0,-100.00,ENE,74,6.0,9.0,74,0.00,,,0.00,0.000000,,2013-01-20 10:52:00,
2013-01-20 04:12:00,7.0,0.0,-100.00,ENE,74,6.0,9.0,74,0.00,,,0.00,0.000000,,2013-01-20 11:12:00,
2013-01-20 04:22:00,7.0,0.0,-100.00,ENE,74,6.0,9.0,74,0.00,,,0.00,0.000000,,2013-01-20 11:22:00,
2013-01-20 04:32:00,7.0,0.0,-100.00,ENE,74,6.0,9.0,74,0.00,,,0.00,0.000000,,2013-01-20 11:32:00,
2013-01-20 04:42:00,7.0,0.0,-100.00,ENE,74,6.0,9.0,74,0.00,,,0.00,0.000000,,2013-01-20 11:42:00,
2013-01-20 04:52:00,6.0,-1.0,-100.00,ENE,70,4.0,9.0,73,0.00,,,0.00,0.000000,,2013-01-20 11:52:00,
2013-01-20 05:22:00,6.0,-1.0,-100.00,ENE,70,4.0,9.0,73,0.00,,,0.00,0.000000,,2013-01-20 12:22:00,
2013-01-20 05:33:00,6.0,-1.0,-100.00,ENE,70,4.0,9.0,73,0.00,,,0.00,0.000000,,2013-01-20 12:33:00,
2013-01-20 05:43:00,6.0,-1.0,-100.00,ENE,70,4.0,9.0,73,0.00,,,0.00,0.000000,,2013-01-20 12:43:00,
2013-01-20 05:52:00,5.0,-1.0,-100.00,ENE,58,0.0,8.0,75,0.00,,,0.00,0.000000,,2013-01-20 12:52:00,
2013-01-20 06:12:00,5.0,-1.0,-100.00,ENE,58,0.0,8.0,75,0.00,,,0.00,0.000000,,2013-01-20 13:12:00,
2013-01-20 06:23:00,5.0,-1.0,-100.00,ENE,58,0.0,8.0,75,0.00,,,0.00,0.000000,,2013-01-20 13:23:00,
2013-01-20 06:33:00,5.0,-1.0,-100.00,ENE,58,0.0,8.0,75,0.00,,,0.00,0.000000,,2013-01-20 13:33:00,
2013-01-20 06:42:00,5.0,-1.0,-100.00,ENE,58,0.0,8.0,75,0.00,,,0.00,0.000000,,2013-01-20 13:42:00,
2013-01-20 06:52:00,4.0,-2.0,-100.00,East,89,1.0,6.0,74,0.00,,,0.00,0.000000,,2013-01-20 13:52:00,
2013-01-20 07:12:00,4.0,-2.0,-100.00,East,89,1.0,6.0,74,0.00,,,0.00,0.000000,,2013-01-20 14:12:00,
2013-01-20 07:22:00,4.0,-2.0,-100.00,East,89,1.0,6.0,74,0.00,,,0.00,0.000000,,2013-01-20 14:22:00,
2013-01-20 07:32:00,4.0,-2.0,-100.00,East,89,1.0,6.0,74,0.00,,,0.00,0.000000,,2013-01-20 14:32:00,
2013-01-20 07:42:00,4.0,-2.0,-100.00,East,89,1.0,6.0,74,0.00,,,0.00,0.000000,,2013-01-20 14:42:00,
2013-01-20 07:52:00,4.0,-3.0,-100.00,ENE,76,5.0,8.0,73,0.00,,,0.00,0.000000,,2013-01-20 14:52:00,
2013-01-20 08:12:00,4.0,-3.0,-100.00,ENE,76,5.0,8.0,73,0.00,,,0.00,0.000000,,2013-01-20 15:12:00,
2013-01-20 08:22:00,4.0,-3.0,-100.00,ENE,76,5.0,8.0,73,0.00,,,0.00,0.000000,,2013-01-20 15:22:00,
2013-01-20 08:33:00,4.0,-3.0,-100.00,ENE,76,5.0,8.0,73,0.00,,,0.00,0.000000,,2013-01-20 15:33:00,
2013-01-20 08:42:00,4.0,-3.0,-100.00,ENE,76,5.0,8.0,73,0.00,,,0.00,0.000000,,2013-01-20 15:42:00,
2013-01-20 08:52:00,9.0,-1.0,-100.00,ENE,70,4.0,8.0,63,0.00,,,0.00,53.000000,,2013-01-20 15:52:00,
2013-01-20 09:12:00,9.0,-1.0,-100.00,ENE,70,4.0,8.0,63,0.00,,,0.00,53.000000,,2013-01-20 16:12:00,
2013-01-20 09:22:00,9.0,-1.0,-100.00,ENE,70,4.0,8.0,63,0.00,,,0.00,53.000000,,2013-01-20 16:22:00,
2013-01-20 09:33:00,9.0,-1.0,-100.00,ENE,70,4.0,8.0,63,0.00,,,0.00,53.000000,,2013-01-20 16:33:00,
2013-01-20 09:42:00,9.0,-1.0,-100.00,ENE,70,4.0,8.0,63,0.00,,,0.00,53.000000,,2013-01-20 16:42:00,
2013-01-20 09:52:00,20.0,3.0,-100.00,ENE,70,1.0,6.0,46,0.00,,,0.00,233.000000,,2013-01-20 16:52:00,
2013-01-20 10:12:00,20.0,3.0,-100.00,ENE,70,1.0,6.0,46,0.00,,,0.00,233.000000,,2013-01-20 17:12:00,
2013-01-20 10:42:00,20.0,3.0,-100.00,ENE,70,1.0,6.0,46,0.00,,,0.00,233.000000,,2013-01-20 17:42:00,
2013-01-20 11:23:00,29.0,4.0,-100.00,ENE,65,0.0,6.0,34,0.00,,,0.00,340.000000,,2013-01-20 18:23:00,
2013-01-20 11:52:00,26.0,4.0,-100.00,NW,311,1.0,4.0,39,-99.99,,,0.00,426.000000,,2013-01-20 18:52:00,
2013-01-20 12:12:00,26.0,4.0,-100.00,NW,311,1.0,4.0,39,-99.99,,,0.00,426.000000,,2013-01-20 19:12:00,
2013-01-20 12:22:00,26.0,4.0,-100.00,NW,311,1.0,4.0,39,-99.99,,,0.00,426.000000,,2013-01-20 19:22:00,
2013-01-20 12:33:00,26.0,4.0,-100.00,NW,311,1.0,4.0,39,-99.99,,,0.00,426.000000,,2013-01-20 19:33:00,
2013-01-20 12:42:00,26.0,4.0,-100.00,NW,311,1.0,4.0,39,-99.99,,,0.00,426.000000,,2013-01-20 19:42:00,
2013-01-20 12:52:00,30.0,6.0,-100.00,WNW,301,1.0,6.0,35,0.00,,,0.00,466.000000,,2013-01-20 19:52:00,
2013-01-20 13:22:00,30.0,6.0,-100.00,WNW,301,1.0,6.0,35,0.00,,,0.00,466.000000,,2013-01-20 20:22:00,
2013-01-20 13:33:00,30.0,6.0,-100.00,WNW,301,1.0,6.0,35,0.00,,,0.00,466.000000,,2013-01-20 20:33:00,
2013-01-20 13:42:00,30.0,6.0,-100.00,WNW,301,1.0,6.0,35,0.00,,,0.00,466.000000,,2013-01-20 20:42:00,
2013-01-20 13:52:00,30.0,6.0,-100.00,NW,311,0.0,3.0,35,0.00,,,0.00,451.000000,,2013-01-20 20:52:00,
2013-01-20 14:13:00,30.0,6.0,-100.00,NW,311,0.0,3.0,35,0.00,,,0.00,451.000000,,2013-01-20 21:13:00,
2013-01-20 14:22:00,30.0,6.0,-100.00,NW,311,0.0,3.0,35,0.00,,,0.00,451.000000,,2013-01-20 21:22:00,
2013-01-20 14:33:00,30.0,6.0,-100.00,NW,311,0.0,3.0,35,0.00,,,0.00,451.000000,,2013-01-20 21:33:00,
2013-01-20 14:42:00,30.0,6.0,-100.00,NW,311,0.0,3.0,35,0.00,,,0.00,451.000000,,2013-01-20 21:42:00,
2013-01-20 14:52:00,34.0,7.0,-100.00,South,173,1.0,5.0,31,0.00,,,0.00,381.000000,,2013-01-20 21:52:00,
2013-01-20 15:22:00,34.0,7.0,-100.00,South,173,1.0,5.0,31,0.00,,,0.00,381.000000,,2013-01-20 22:22:00,
2013-01-20 15:33:00,34.0,7.0,-100.00,South,173,1.0,5.0,31,0.00,,,0.00,381.000000,,2013-01-20 22:33:00,
2013-01-20 15:42:00,34.0,7.0,-100.00,South,173,1.0,5.0,31,0.00,,,0.00,381.000000,,2013-01-20 22:42:00,
2013-01-20 15:52:00,31.0,7.0,-100.00,WNW,297,1.0,5.0,36,0.00,,,0.00,268.000000,,2013-01-20 22:52:00,
2013-01-20 16:12:00,31.0,7.0,-100.00,WNW,297,1.0,5.0,36,0.00,,,0.00,268.000000,,2013-01-20 23:12:00,
2013-01-20 16:23:00,31.0,7.0,-100.00,WNW,297,1.0,5.0,36,0.00,,,0.00,268.000000,,2013-01-20 23:23:00,
2013-01-20 16:33:00,31.0,7.0,-100.00,WNW,297,1.0,5.0,36,0.00,,,0.00,268.000000,,2013-01-20 23:33:00,
2013-01-20 16:42:00,31.0,7.0,-100.00,WNW,297,1.0,5.0,36,0.00,,,0.00,268.000000,,2013-01-20 23:42:00,
2013-01-20 16:52:00,28.0,7.0,-100.00,SE,127,0.0,5.0,40,0.00,,,0.00,124.000000,,2013-01-20 23:52:00,
2013-01-20 17:22:00,28.0,7.0,-100.00,SE,127,0.0,5.0,40,0.00,,,0.00,124.000000,,2013-01-21 00:22:00,
2013-01-20 17:33:00,28.0,7.0,-100.00,SE,127,0.0,5.0,40,0.00,,,0.00,124.000000,,2013-01-21 00:33:00,
2013-01-20 17:42:00,28.0,7.0,-100.00,SE,127,0.0,5.0,40,0.00,,,0.00,124.000000,,2013-01-21 00:42:00,
2013-01-20 17:52:00,20.0,6.0,-100.00,ESE,102,0.0,0.0,53,0.00,,,0.00,8.000000,,2013-01-21 00:52:00,
2013-01-20 18:12:00,20.0,6.0,-100.00,ESE,102,0.0,0.0,53,0.00,,,0.00,8.000000,,2013-01-21 01:12:00,
2013-01-20 18:22:00,20.0,6.0,-100.00,ESE,102,0.0,0.0,53,0.00,,,0.00,8.000000,,2013-01-21 01:22:00,
2013-01-20 18:32:00,20.0,6.0,-100.00,ESE,102,0.0,0.0,53,0.00,,,0.00,8.000000,,2013-01-21 01:32:00,
2013-01-20 18:42:00,20.0,6.0,-100.00,ESE,102,0.0,0.0,53,0.00,,,0.00,8.000000,,2013-01-21 01:42:00,
2013-01-20 18:52:00,17.0,7.0,-100.00,ENE,76,2.0,5.0,64,0.00,,,0.00,0.000000,,2013-01-21 01:52:00,
2013-01-20 19:23:00,17.0,7.0,-100.00,ENE,76,2.0,5.0,64,0.00,,,0.00,0.000000,,2013-01-21 02:23:00,
2013-01-20 19:33:00,17.0,7.0,-100.00,ENE,76,2.0,5.0,64,0.00,,,0.00,0.000000,,2013-01-21 02:33:00,
2013-01-20 19:42:00,17.0,7.0,-100.00,ENE,76,2.0,5.0,64,0.00,,,0.00,0.000000,,2013-01-21 02:42:00,
2013-01-20 19:52:00,15.0,6.0,-100.00,East,82,2.0,6.0,68,0.00,,,0.00,0.000000,,2013-01-21 02:52:00,
2013-01-20 20:23:00,15.0,6.0,-100.00,East,82,2.0,6.0,68,0.00,,,0.00,0.000000,,2013-01-21 03:23:00,
2013-01-20 20:33:00,15.0,6.0,-100.00,East,82,2.0,6.0,68,0.00,,,0.00,0.000000,,2013-01-21 03:33:00,
2013-01-20 20:43:00,15.0,6.0,-100.00,East,82,2.0,6.0,68,0.00,,,0.00,0.000000,,2013-01-21 03:43:00,
2013-01-20 20:52:00,13.0,4.0,-100.00,ENE,78,3.0,7.0,67,0.00,,,0.00,0.000000,,2013-01-21 03:52:00,
2013-01-20 21:12:00,13.0,4.0,-100.00,ENE,78,3.0,7.0,67,0.00,,,0.00,0.000000,,2013-01-21 04:12:00,
2013-01-20 21:22:00,13.0,4.0,-100.00,ENE,78,3.0,7.0,67,0.00,,,0.00,0.000000,,2013-01-21 04:22:00,
2013-01-20 21:32:00,13.0,4.0,-100.00,ENE,78,3.0,7.0,67,0.00,,,0.00,0.000000,,2013-01-21 04:32:00,
2013-01-20 21:42:00,13.0,4.0,-100.00,ENE,78,3.0,7.0,67,0.00,,,0.00,0.000000,,2013-01-21 04:42:00,
2013-01-20 21:52:00,11.0,4.0,-100.00,ENE,69,1.0,8.0,73,0.00,,,0.00,0.000000,,2013-01-21 04:52:00,
2013-01-20 22:12:00,11.0,4.0,-100.00,ENE,69,1.0,8.0,73,0.00,,,0.00,0.000000,,2013-01-21 05:12:00,
2013-01-20 22:22:00,11.0,4.0,-100.00,ENE,69,1.0,8.0,73,0.00,,,0.00,0.000000,,2013-01-21 05:22:00,
2013-01-20 22:33:00,11.0,4.0,-100.00,ENE,69,1.0,8.0,73,0.00,,,0.00,0.000000,,2013-01-21 05:33:00,
2013-01-20 22:42:00,11.0,4.0,-100.00,ENE,69,1.0,8.0,73,0.00,,,0.00,0.000000,,2013-01-21 05:42:00,
2013-01-20 22:52:00,10.0,4.0,-100.00,NE,46,0.0,5.0,77,0.00,,,0.00,0.000000,,2013-01-21 05:52:00,
2013-01-20 23:12:00,10.0,4.0,-100.00,NE,46,0.0,5.0,77,0.00,,,0.00,0.000000,,2013-01-21 06:12:00,
2013-01-20 23:23:00,10.0,4.0,-100.00,NE,46,0.0,5.0,77,0.00,,,0.00,0.000000,,2013-01-21 06:23:00,
2013-01-20 23:32:00,10.0,4.0,-100.00,NE,46,0.0,5.0,77,0.00,,,0.00,0.000000,,2013-01-21 06:32:00,
2013-01-20 23:43:00,10.0,4.0,-100.00,NE,46,0.0,5.0,77,0.00,,,0.00,0.000000,,2013-01-21 06:43:00,
2013-01-20 23:52:00,12.0,5.0,-100.00,ESE,111,0.0,4.0,74,0.00,,,-99.99,0.000000,,2013-01-21 06:52:00,